Location: Borojevi?i
(45.0486°N, 16.2297°E)
Time: 14:26:22
(UTC+00:00)

Thor Agena Rocket - Pass Details

Date: 08 August 2020
Orbit: 760 x 807 km, 99.0° (Epoch: 18 September)

Event Time Altitude Azimuth Distance (km) Brightness Sun altitude
Rises 21:10:02 0° 22° (NNE) 3,238 7.3 -24.2°
Reaches altitude 10° 21:12:31 10° 31° (NNE) 2,312 6.3 -24.4°
Enters shadow 21:16:23 34° 77° (ENE) 1,252 4.4 -24.7°
